Content
SEND FEEDBACK

Daily
Averages
Monthly
Summary
Canada

QUEBEC CITY, QUEBEC


Home > North America > Canada > Quebec
Elevation: 72 meters     Latitude: 46 48N     Longitude: 071 23W

WEATHER
 
SELECT A DAY
Number of Records: 197,121;   Date Range: 6/30/96 - 11/25/14
 
SHARE

PRINT THIS DATA

[ ← Previous Day ]
WEATHER ALMANAC - 10 JANUARY, 2013
[ Next Day → ]
[ °F ]   °C
Weather ElementAverageHighLow
Temperature-0.6 °C2.8 °C (4:00 am)-6.7 °C (10:00 pm)
Dewpoint-5.4 °C0 °C (1:00 am)-10 °C (9:00 pm)
Humidity68.7 %90 % (1:00 am)48 % (4:00 pm)
Barometer1024.7 hPa1034.9 hPa (7:00 pm)1009.5 hPa (1:00 am)
Wind Speed21.2 km/h38.9 km/h (8:00 am)
Wind Gust55.5 km/h (8:00 am)
Weather ElementAverage
Visibility33.3 km
Wind DirectionWNW (287.7 °)

Weather ElementTotal
Precipitation---
Heating Degree Days20.3 (Base 18.3)
Averaged from 31 records on 10 January, 2013
WEATHER CONDITIONS BREAKOUT
WIND DIRECTION BREAKOUT
WEATHER BY HOUR - 10 JANUARY, 2013
[ °F ]   °C
Local TimeTemperatureDewpointHumidityBarometerVisibilityWind DirectionWind SpeedGust SpeedPrecipitationEventsConditions
1:00 AM1.1 °C0 °C90 %1009.5 hPaWest (260°)27.8 km/h
1:00 AM1 °C-1 °C87 %1009.5 hPa8 kmWest (260°)31.5 km/h44.4 km/hSnowLight Snow
2:00 AM1 °C-1 °C87 %1011.2 hPa12.9 kmWest (260°)33.3 km/h44.4 km/hMostly Cloudy
3:00 AM1 °C-1 °C87 %1012.2 hPa19.3 kmWest (260°)31.5 km/hSnowLight Snow Showers
4:00 AM2.8 °C-1.7 °C63 %1014.6 hPaWest (280°)25.9 km/h
4:00 AM2 °C-2 °C75 %1014.6 hPa24.1 kmWest (270°)20.4 km/h29.6 km/hOvercast
5:00 AM1 °C-1 °C87 %1015.9 hPa24.1 kmWSW (250°)24.1 km/hMostly Cloudy
6:00 AM1 °C-1 °C87 %1016.9 hPa24.1 kmWSW (250°)25.9 km/hMostly Cloudy
7:00 AM2.2 °C-1.7 °C68 %1017.9 hPaWest (270°)33.3 km/h
7:00 AM2 °C-2 °C75 %1017.9 hPa48.3 kmWest (270°)35.2 km/h48.1 km/hOvercast
8:00 AM1 °C-4 °C70 %1019.6 hPa48.3 kmWNW (290°)38.9 km/h55.5 km/hScattered Clouds
9:00 AM0 °C-5 °C69 %1021.3 hPa48.3 kmWNW (300°)38.9 km/h55.5 km/hPartly Cloudy
10:00 AM0.6 °C-5.6 °C54 %1024 hPaNW (320°)20.4 km/h
10:00 AM0 °C-6 °C64 %1024.4 hPa48.3 kmWNW (300°)27.8 km/h40.7 km/hPartly Cloudy
11:00 AM0 °C-7 °C60 %1025.7 hPa48.3 kmNW (320°)9.3 km/h35.2 km/hScattered Clouds
12:00 PM-1 °C-8 °C60 %1026.4 hPa48.3 kmNNW (330°)11.1 km/h31.5 km/hMostly Cloudy
1:00 PM0 °C-6.7 °C49 %1026.4 hPaNW (320°)27.8 km/h
1:00 PM0 °C-7 °C60 %1026.8 hPa48.3 kmNW (310°)31.5 km/h46.3 km/hPartly Cloudy
2:00 PM0 °C-7 °C60 %1029.1 hPa48.3 kmWNW (300°)14.8 km/hScattered Clouds
3:00 PM0 °C-7 °C60 %1030.8 hPa48.3 kmNNW (330°)14.8 km/hMostly Cloudy
4:00 PM-0.6 °C-7.2 °C48 %1031.8 hPaWNW (300°)14.8 km/h
4:00 PM-1 °C-8 °C60 %1032.2 hPa48.3 kmWNW (290°)9.3 km/hMostly Cloudy
5:00 PM-1 °C-8 °C60 %1033.9 hPa24.1 kmWest (280°)16.7 km/hMostly Cloudy
6:00 PM-2 °C-7 °C69 %1034.5 hPa24.1 kmWest (260°)13 km/hMostly Cloudy
7:00 PM-2.2 °C-7.2 °C59 %1034.5 hPaWNW (290°)9.3 km/h
7:00 PM-3 °C-8 °C69 %1034.9 hPa24.1 kmWNW (290°)11.1 km/hMostly Cloudy
8:00 PM-3 °C-9 °C64 %1034.9 hPa24.1 kmNW (310°)13 km/hPartly Cloudy
9:00 PM-6 °C-10 °C74 %1034.5 hPa24.1 kmWest (280°)11.1 km/hClear
10:00 PM-6.7 °C-8.9 °C78 %1034.2 hPaWest (270°)5.6 km/h
10:00 PM-5 °C-10 °C68 %1034.5 hPa24.1 kmWNW (290°)11.1 km/hClear
11:00 PM-5 °C-10 °C68 %1034.5 hPa24.1 kmNW (310°)18.5 km/hClear
Hourly data recorded from CYQB, located 0 kilometers away from Quebec City, Quebec







STORIES FROM OUR PARTNERS